User: anonymous   Login
Location: Unspecified
(0.0000°N, 0.0000°E)
Time: 23:08:09
(UTC+01:00)
Language:

Cosmos 540 Rocket - Orbit

View from above orbital plane
View from above orbital plane
View from above satellite
View from above satellite

Ground track
Ground track

The orbit data is extracted from the following two-line orbital elements,

1  6324U 72104B   17081.68231969 +.00000154 +00000-0 +53420-4 0  9998
2  6324 074.0748 266.2794 0008256 066.0543 294.1478 14.43357186322822
Epoch (UTC): 22 March 2017 16:22:32
Eccentricity: 0.0008256
inclination: 74.0748°
perigee height: 741 km
apogee height: 753 km
right ascension of ascending node: 266.2794°
argument of perigee: 66.0543°
revolutions per day: 14.43357186
mean anomaly at epoch: 294.1478°
orbit number at epoch: 32282

The dashed part of the orbit path shows where the satellite is in the earth's shadow,  

DLR